Regional Weather Roundup
Issued by NWS

Home | Current Version | Previous Version | Text Only | Print | Product List | Glossary Off
Versions: 1 2 3 4 5 6 7 8 9 10 11 12 13 14 15 16 17 18 19 20 21 22 23 24 25 26 27 28 29 30 31 32 33 34 35 36 37 38 39 40 41 42 43 44 45 46 47 48 49 50

000
ASUS43 KFSD 230410
RWRSD

WEATHER ROUNDUP FOR SOUTH DAKOTA
NATIONAL WEATHER SERVICE SIOUX FALLS SD
1100 PM CDT FRI AUG 22 2014

NOTE: "FAIR" INDICATES FEW OR NO CLOUDS BELOW 12,000 FEET WITH NO
SIGNIFICANT WEATHER AND/OR OBSTRUCTIONS TO VISIBILITY.


SDZ001>005-009-010-012>017-230500-
NORTHWEST AND NORTH CENTRAL SOUTH DAKOTA

CITY           SKY/WX    TMP DP  RH WIND       PRES   REMARKS
BUFFALO          N/A     66  61  84 NE14      29.99S
FAITH            N/A     66  62  87 NE12      30.03S
MOBRIDGE       CLOUDY    69  66  90 E10       30.02R
$$

SDZ012>016-024>037-041>051-057-063-072>074-230500-
SOUTHWEST AND SOUTH CENTRAL SOUTH DAKOTA

CITY           SKY/WX    TMP DP  RH WIND       PRES   REMARKS
RAPID CTY ARPT CLOUDY    68  63  84 NE10      30.01S
PIERRE         CLOUDY    70  66  87 E14G23    29.98R
ELLSWORTH AFB  CLOUDY    69  64  85 NE9       30.02R
PHILIP         CLOUDY    71  64  78 E15       29.97S
PINE RIDGE     CLOUDY    69  58  67 CALM      30.01S
WINNER         LGT RAIN  74  69  85 E6        29.99R
$$

SDZ004>011-016>023-039-040-230500-
NORTHEAST SOUTH DAKOTA

CITY           SKY/WX    TMP DP  RH WIND       PRES   REMARKS
ABERDEEN       PTCLDY    68  66  93 NE10      30.03R
WATERTOWN      CLOUDY    70  68  93 NE10      30.04R
SISSETON         N/A     67  67 100 N7        30.03S
$$

SDZ017-020-022-023-036>040-048>070-230500-
SOUTHEAST SOUTH DAKOTA

CITY           SKY/WX    TMP DP  RH WIND       PRES   REMARKS
SIOUX FALLS    MOCLDY    75  69  81 E9        30.00S
HURON          CLOUDY    76  68  76 E8        29.99R
CHAMBERLAIN    CLOUDY    72  68  89 E7        29.99R
MITCHELL       CLOUDY    75  70  84 SE7       29.98R
YANKTON        MOCLDY    73  72  94 NE7       29.96F
$$

ABBREVIATIONS USED IN REMARKS
   TC - TEMPERATURE IN CELSIUS
  WCI - WIND CHILL INDEX
   HX - HEAT INDEX
  VSB - VISIBILITY




USA.gov is the U.S. government's official web portal to all federal, state and local government web resources and services.